Forside
METAR-TAF:

METAR-TAF

Lufthavne :

Olney-Noble Airport

Olney-Noble, Illinois, USA

Breddekreds: 38-43-19N, længdekreds: 088-10-35W, højde: 147 m

Aktuelle vejr

Denne rapport blev lavet for 26 minutter siden, kl. 12:55 UTC
Vind 9 kt fra sydøst
Temperatur -3°C
Fugtighed 63%
Tryk 1025 hPa
Sigt: 16.1 km
Overskyet i en højde af 4800 ft

METAR: KOLY 221255Z AUTO 14009KT 10SM OVC048 M03/M09 A3026 RMK AO2 T10321087

Tid: 07:21 (13:21 UTC)


TAF: fraværende

Vejrobservationer og prognoser fra mere end 4000 lufthavne (METAR og TAF).

De gule og røde prikker repræsenterer de meteorologiske stationer.

Flyt musen over at se navnet på stationen.

Så klik over at se vejr observationer og prognoser.

At skifte det kort: Klik på de grønne knapper med et sort kors for at zoome ind; på den grønne knap med en bindestreg for at zoome ud; eller på de grønne pile for tilstødende kort.


METAR-TAF: